DF1LON Weather Reports


time (UTC)temp
F
wind
direction
speed
knots
gust
knots
rain 1hr
in
rain 24hr
in
rain mn
in
humidity
%
barometer
mb
20260502163201 73 68 3.5 4.3 0.00 0.00 0.00 5 1011.8
20260502162202 74 68 1.7 1.7 0.00 0.00 0.00 5 1012.8
20260502161202 74 68 0.0 0.0 0.00 0.00 0.00 5 1012.8
20260502160202 74 68 0.0 0.0 0.00 0.00 0.00 5 1012.8
20260502152202 73 248 0.0 0.0 0.00 0.00 0.00 6 1013.8
20260502151202 72 248 0.0 0.0 0.00 0.00 0.00 7 1013.8
20260502150202 69 248 0.0 0.0 0.00 0.00 0.00 8 1013.8
20260502130202 75 158 0.9 0.9 0.00 0.00 0.00 5 1014.9
20260502123201 76 202 5.2 5.2 0.00 0.00 0.00 5 1014.9
20260502122202 76 158 1.7 2.6 0.00 0.00 0.00 5 1015.9
20260502121202 75 202 0.0 0.0 0.00 0.00 0.00 5 1015.9
20260502120202 75 202 6.1 6.1 0.00 0.00 0.00 5 1015.9
20260502115202 75 158 7.0 7.8 0.00 0.00 0.00 5 1015.9
20260502114202 75 225 4.3 4.3 0.00 0.00 0.00 5 1015.9
20260502113202 75 180 5.2 5.2 0.00 0.00 0.00 5 1015.9
20260502112202 74 202 5.2 5.2 0.00 0.00 0.00 5 1015.9
20260502111202 74 202 6.1 6.1 0.00 0.00 0.00 5 1015.9
20260502110201 73 158 1.7 1.7 0.00 0.00 0.00 5 1015.9
20260502105202 73 225 4.3 4.3 0.00 0.00 0.00 5 1016.9
20260502104202 73 158 3.5 3.5 0.00 0.00 0.00 5 1016.9
20260502103202 73 248 5.2 5.2 0.00 0.00 0.00 5 1016.9
20260502102203 73 180 0.0 0.0 0.00 0.00 0.00 5 1016.9
20260502101202 71 202 0.0 0.0 0.00 0.00 0.00 5 1016.9
20260502100201 71 158 0.0 0.0 0.00 0.00 0.00 5 1016.9
20260502091202 67 180 3.5 3.5 0.00 0.00 0.00 5 1017.9
20260502090202 66 180 3.5 3.5 0.00 0.00 0.00 5 1017.9
20260502071202 62 202 5.2 6.1 0.00 0.00 0.00 5 1017.9
20260502070202 61 135 5.2 5.2 0.00 0.00 0.00 5 1017.9
20260502065201 60 158 0.9 0.9 0.00 0.00 0.00 5 1017.9
20260502064202 61 112 7.0 7.8 0.00 0.00 0.00 5 1016.9
20260502063202 61 135 6.1 6.1 0.00 0.00 0.00 5 1016.9
20260502062201 60 135 6.1 6.1 0.00 0.00 0.00 5 1017.9
20260502061202 59 158 5.2 5.2 0.00 0.00 0.00 5 1016.9
20260502060202 58 135 3.5 4.3 0.00 0.00 0.00 5 1016.9
20260502055202 57 135 5.2 5.2 0.00 0.00 0.00 5 1017.9
20260502054202 57 135 1.7 2.6 0.00 0.00 0.00 6 1017.9
20260502053202 57 158 1.7 1.7 0.00 0.00 0.00 6 1017.9
20260502052201 56 180 0.0 0.0 0.00 0.00 0.00 6 1017.9
20260502051202 55 135 0.0 0.0 0.00 0.00 0.00 6 1017.9
20260502050202 54 135 5.2 5.2 0.00 0.00 0.00 6 1017.9
20260502045202 54 135 4.3 4.3 0.00 0.00 0.00 6 1017.9
20260502044202 53 135 0.0 0.0 0.00 0.00 0.00 6 1017.9
20260502043202 53 135 0.0 0.0 0.00 0.00 0.00 6 1017.9
20260502042202 53 135 0.0 0.0 0.00 0.00 0.00 6 1017.9
20260502041202 53 135 0.0 0.0 0.00 0.00 0.00 6 1017.9
20260502040202 53 135 0.0 0.0 0.00 0.00 0.00 6 1017.9
20260502035202 54 135 0.0 0.0 0.00 0.00 0.00 6 1017.9
20260502034202 53 135 1.7 2.6 0.00 0.00 0.00 6 1017.9
20260502033202 53 135 0.0 0.0 0.00 0.00 0.00 6 1017.9
20260502032202 54 158 0.0 0.0 0.00 0.00 0.00 6 1017.9
20260502031202 54 158 2.6 2.6 0.00 0.00 0.00 6 1017.9
20260502030201 54 158 0.0 0.0 0.00 0.00 0.00 6 1017.9
20260502025202 55 158 0.0 0.0 0.00 0.00 0.00 6 1017.9
20260502024202 55 225 0.0 0.0 0.00 0.00 0.00 6 1017.9
20260502023202 55 135 0.0 0.0 0.00 0.00 0.00 6 1017.9
20260502022202 56 135 0.0 0.0 0.00 0.00 0.00 6 1017.9
20260502021202 57 135 0.0 0.0 0.00 0.00 0.00 6 1017.9
20260502020202 57 158 4.3 4.3 0.00 0.00 0.00 5 1017.9
20260502015202 57 158 0.0 0.0 0.00 0.00 0.00 5 1017.9
20260502014202 57 135 5.2 6.1 0.00 0.00 0.00 5 1017.9
20260502013202 57 135 0.0 0.0 0.00 0.00 0.00 5 1017.9
20260502012202 57 135 0.0 0.0 0.00 0.00 0.00 5 1018.9
20260502011202 57 135 0.0 0.0 0.00 0.00 0.00 5 1018.9
20260502010201 58 135 0.0 0.0 0.00 0.00 0.00 5 1018.9
20260502005202 58 135 6.1 6.1 0.00 0.00 0.00 5 1018.9
20260502004201 58 158 0.0 0.0 0.00 0.00 0.00 5 1018.9
20260502003202 58 158 0.0 0.0 0.00 0.00 0.00 5 1018.9
20260502002202 59 135 4.3 4.3 0.00 0.00 0.00 5 1018.9
20260502001202 59 135 3.5 3.5 0.00 0.00 0.00 5 1018.9
20260502000203 59 135 5.2 5.2 0.00 0.00 0.00 5 1018.9
20260501235202 59 135 4.3 4.3 0.00 0.00 0.00 5 1018.9
20260501234202 59 135 4.3 4.3 0.00 0.00 0.00 5 1019.9
20260501233202 59 135 0.0 0.0 0.00 0.00 0.00 5 1019.9
20260501232202 59 135 0.0 0.0 0.00 0.00 0.00 5 1019.9
20260501231202 59 135 0.0 0.0 0.00 0.00 0.00 5 1019.9
20260501230202 59 112 0.0 0.0 0.00 0.00 0.00 5 1019.9
20260501225202 60 112 0.0 0.0 0.00 0.00 0.00 5 1019.9
20260501224203 60 112 0.0 0.0 0.00 0.00 0.00 5 1019.9
20260501223202 60 112 0.0 0.0 0.00 0.00 0.00 5 1019.9
20260501222202 61 112 0.0 0.0 0.00 0.00 0.00 5 1019.9
20260501221202 61 112 0.0 0.0 0.00 0.00 0.00 4 1019.9
20260501220202 61 112 0.0 0.0 0.00 0.00 0.00 4 1019.9
20260501215203 62 112 0.0 0.0 0.00 0.00 0.00 4 1019.9
20260501214202 62 112 0.0 0.0 0.00 0.00 0.00 4 1019.9
20260501213202 62 112 0.0 0.0 0.00 0.00 0.00 4 1019.9
20260501212202 63 112 0.0 0.0 0.00 0.00 0.00 4 1019.9
20260501211202 63 112 0.0 0.0 0.00 0.00 0.00 4 1019.9
20260501210202 64 112 0.0 0.0 0.00 0.00 0.00 4 1019.9
20260501205202 65 112 0.0 0.0 0.00 0.00 0.00 4 1019.9
20260501204202 66 112 0.0 0.0 0.00 0.00 0.00 3 1019.9
20260501203202 66 135 0.0 0.0 0.00 0.00 0.00 3 1019.9
20260501202202 66 135 0.0 0.0 0.00 0.00 0.00 3 1019.9
20260501201202 67 112 0.0 0.0 0.00 0.00 0.00 3 1019.9
20260501200202 68 112 0.0 0.0 0.00 0.00 0.00 3 1019.9
20260501194202 68 112 4.3 4.3 0.00 0.00 0.00 3 1019.9
20260501193202 68 135 4.3 4.3 0.00 0.00 0.00 3 1019.9
20260501192202 69 158 5.2 6.1 0.00 0.00 0.00 3 1019.9
20260501191202 69 112 6.1 6.1 0.00 0.00 0.00 3 1019.9
20260501190202 70 135 5.2 5.2 0.00 0.00 0.00 3 1019.9
20260501185202 70 112 4.3 4.3 0.00 0.00 0.00 3 1019.9
20260501184202 71 112 1.7 2.6 0.00 0.00 0.00 3 1019.9
20260501183202 71 135 7.0 7.0 0.00 0.00 0.00 3 1019.9
20260501182202 72 135 5.2 5.2 0.00 0.00 0.00 3 1019.9
20260501181202 73 180 7.0 7.8 0.00 0.00 0.00 3 1019.9
20260501180202 73 135 8.7 10.4 0.00 0.00 0.00 2 1019.9
20260501175201 73 158 7.0 8.7 0.00 0.00 0.00 2 1018.9
20260501174202 74 112 7.0 7.8 0.00 0.00 0.00 2 1019.9
20260501173202 74 112 7.8 8.7 0.00 0.00 0.00 2 1019.9
20260501172202 74 135 7.0 7.8 0.00 0.00 0.00 2 1018.9
20260501171201 75 135 7.8 7.8 0.00 0.00 0.00 2 1019.9
20260501170202 75 135 5.2 6.1 0.00 0.00 0.00 2 1019.9
20260501165202 75 202 6.1 6.1 0.00 0.00 0.00 2 1019.9
20260501164202 75 112 7.0 7.8 0.00 0.00 0.00 2 1019.9